ATLAS 5 CENTAUR R/B, 46919

Orbit data source: Space-Track

ATLAS 5 CENTAUR R/B, 46919 is space debris originally from a launch on Fri, 13 Nov 2020 UTC launched from the Air Force Eastern Test Range (AFETR). Debris objects in space refer to the collection of defunct objects orbiting the Earth. Examples of debris include non-operational satellites, rocket bodies, and fragments generated from explosions, collisions, or faulty payload assembly.

Loading next visibility...
Identifier
46919, 2020-083B
Orbit
Active
Country
Flag of USUS
Related business
Flag of USUnited Launch Alliance/Lockheed Martin (US)
Manufacturer
ULA Decatur
Mission
Spacecraft
Bus & Motor
CENTAUR SEC, RL10C-1
Mass
~2,020 kg wet, 2,020 kg dry
Launch date (UTC)
2020-11-13 (5 years ago)
Launch vehicle
Unknown
Launch site
Air Force Eastern Test Range (AFETR)
Object type
Payload
Rocket body
Debris
Shape & HBR
Cyl + 1 Nozzle, 5.8 m
Radar Cross Section
32.260 m²

Expand to show TLE details & history
Last TLE update: 1 day ago

TLE from 1 day ago
0 ATLAS 5 CENTAUR R/B
1 46919U 20083B   25257.35706363 -.00000050  00000-0  00000-0 0  9992
2 46919  58.9575   6.7316 0133028 212.9760 146.2270  3.86387289 34820
Epoch: 2025-09-14T08:34Z
TLE epoch observation values (Epoch: 2025-09-14T08:34:10.297Z)
Latitude
-0.00001°
Longitude
-115.39259°
Altitude
10,968.024 km
Speed
4.767 km/s
True Right ascension
00h 26m 54s
True Declination
0° 00' 00"
Sunlit
Object was in full shadow at epoch
Visualization orbit readout
Latitude
Unknown
Longitude
Unknown
Altitude
Unknown
Speed
Unknown
Apparent Right ascension
Unknown
Apparent Declination
Unknown
Sunlit
N/A
Visualization observer readout
Local Sidereal Time
07:02:47
Azimuth
Unknown
Elevation
Unknown
Doppler factor
Unknown
Orbital elements
Apogee altitude
11,004.656 km
Perigee altitude
10,548.248 km
Semi-major axis
17,154.589 km
Eccentricity
0.0133
Inclination
58.9575°
RAAN
6.7316°
Arg. of periapsis
212.976°
True anomaly
147.06282°
Mean anomaly
146.227°
Eccentric anomaly
146.64606°
Mean motion
0.96599 °/min
Orbital period
372.67 mins
BSTAR
0
Loading maneuver chart data...
Computing Atmospheric mass density...
Loading historical data...
Loading historical data...
Loading historical data...
Loading historical data...
Loading historical data...
Loading historical data...
Loading historical data...
Other satellites on launch #83 in the year 2020 (2020-11-13 UTC)

Documentation

Showing up to 5 results
|